GW5324 Weather Reports


Display with metric or nautical units.
time (UTC)temp
F
wind
direction
speed
MPH
gust
MPH
rain 1hr
in
rain 24hr
in
rain mn
in
humidity
%
barometer
mb
20260902073030 62 169 2.0 5.0 0.00 0.00 0.00 71 1011.4
20260902071525 62 181 3.0 5.0 0.00 0.00 0.00 71 1011.6
20260902070032 63 163 2.0 5.0 0.00 0.00 0.00 70 1011.6
20260902064531 63 157 3.0 6.0 0.00 0.00 0.00 70 1011.7
20260902063050 63 150 4.0 9.0 0.00 0.00 0.00 69 1011.8
20260902061523 63 179 4.0 6.0 0.00 0.00 0.00 69 1011.8
20260902060038 64 223 4.0 6.0 0.00 0.00 0.00 68 1011.7
20260902054534 64 209 2.0 5.0 0.00 0.00 0.00 68 1011.8
20260902053038 64 163 6.0 10.0 0.00 0.00 0.00 68 1012.0
20260902051545 64 220 7.0 10.0 0.00 0.00 0.00 67 1012.0
20260902050026 64 221 5.0 11.0 0.00 0.00 0.00 67 1011.9
20260902044505 65 202 4.0 9.0 0.00 0.00 0.00 66 1011.7
20260902043008 65 196 5.0 11.0 0.00 0.00 0.00 66 1011.8
20260902041513 65 205 5.0 13.0 0.00 0.00 0.00 66 1011.7
20260902040024 65 206 5.0 8.0 0.00 0.00 0.00 66 1011.7
20260902034533 65 225 7.0 13.0 0.00 0.00 0.00 65 1011.5
20260902033032 66 206 5.0 10.0 0.00 0.00 0.00 64 1011.3
20260902031532 66 232 8.0 13.0 0.00 0.00 0.00 64 1011.4
20260902030032 66 194 6.0 14.0 0.00 0.00 0.00 63 1011.5
20260902024524 67 221 5.0 13.0 0.00 0.00 0.00 62 1011.4
20260902023031 67 237 8.0 14.0 0.00 0.00 0.00 61 1011.3
20260902021509 68 242 5.0 10.0 0.00 0.00 0.00 61 1011.2
20260902020034 68 258 4.0 14.0 0.00 0.00 0.00 60 1011.2
20260902014523 68 210 6.0 12.0 0.00 0.00 0.00 58 1011.0
20260902013033 69 249 5.0 12.0 0.00 0.00 0.00 58 1011.1
20260902011507 68 231 4.0 11.0 0.00 0.00 0.00 59 1011.0
20260902010011 69 259 9.0 14.0 0.00 0.00 0.00 57 1010.9
20260902004535 69 258 6.0 11.0 0.00 0.00 0.00 56 1010.8
20260902003030 70 221 3.0 8.0 0.00 0.00 0.00 56 1010.7
20260902001530 70 226 7.0 11.0 0.00 0.00 0.00 57 1010.5
20260902000010 70 281 5.0 13.0 0.00 0.00 0.00 57 1010.7
20260901234532 70 223 5.0 9.0 0.00 0.00 0.00 57 1010.8
20260901233026 70 242 5.0 10.0 0.00 0.00 0.00 55 1011.0
20260901231534 69 248 7.0 12.0 0.00 0.00 0.00 58 1011.1
20260901230013 70 220 6.0 11.0 0.00 0.00 0.00 58 1010.9
20260901224514 69 251 4.0 9.0 0.00 0.00 0.00 58 1011.2
20260901223020 69 252 5.0 9.0 0.00 0.00 0.00 60 1011.2
20260901221524 69 276 7.0 11.0 0.00 0.00 0.00 59 1011.2
20260901220034 69 239 4.0 11.0 0.00 0.00 0.00 59 1011.2
20260901214536 69 273 1.0 8.0 0.00 0.00 0.00 59 1011.3
20260901213025 68 262 2.0 10.0 0.00 0.00 0.00 58 1011.4
20260901211532 68 218 6.0 10.0 0.00 0.00 0.00 60 1011.3
20260901210030 68 175 3.0 8.0 0.00 0.00 0.00 65 1011.4
20260901204533 66 228 3.0 8.0 0.00 0.00 0.00 65 1011.6
20260901203018 66 200 6.0 10.0 0.00 0.00 0.00 65 1011.7
20260901201520 67 236 6.0 8.0 0.00 0.00 0.00 63 1011.5
20260901200034 67 244 5.0 8.0 0.00 0.00 0.00 63 1011.5
20260901194508 66 196 2.0 7.0 0.00 0.00 0.00 64 1011.8
20260901193014 66 224 3.0 8.0 0.00 0.00 0.00 66 1011.9
20260901191518 66 176 2.0 4.0 0.00 0.00 0.00 69 1012.0
20260901190027 66 165 4.0 7.0 0.00 0.00 0.00 68 1012.2
20260901184508 65 232 4.0 9.0 0.00 0.00 0.00 70 1012.3
20260901183022 65 196 6.0 9.0 0.00 0.00 0.00 72 1012.4
20260901181534 64 213 5.0 9.0 0.00 0.00 0.00 74 1012.3
20260901180024 63 191 5.0 9.0 0.00 0.00 0.00 75 1012.5
20260901174527 62 230 2.0 6.0 0.00 0.00 0.00 78 1012.5
20260901173009 62 198 4.0 8.0 0.00 0.00 0.00 79 1012.6
20260901171515 61 218 3.0 8.0 0.00 0.00 0.00 79 1012.4
20260901170039 60 188 3.0 6.0 0.00 0.00 0.00 81 1012.3
20260901164527 61 215 5.0 7.0 0.00 0.00 0.00 80 1012.2
20260901163038 60 213 4.0 7.0 0.00 0.00 0.00 81 1012.3
20260901161539 60 232 3.0 7.0 0.00 0.00 0.00 81 1012.4
20260901160038 60 259 3.0 10.0 0.00 0.00 0.00 79 1012.2
20260901154524 61 189 5.0 8.0 0.00 0.00 0.00 78 1012.3
20260901153036 61 202 5.0 9.0 0.00 0.00 0.00 77 1012.3
20260901151542 61 188 6.0 10.0 0.00 0.00 0.00 77 1012.1
20260901150032 60 180 2.0 8.0 0.00 0.00 0.00 77 1011.8
20260901144520 60 172 3.0 7.0 0.00 0.00 0.00 77 1011.8
20260901143038 60 138 2.0 5.0 0.00 0.00 0.00 77 1012.0
20260901141541 60 180 2.0 4.0 0.00 0.00 0.00 77 1011.9
20260901140319 60 132 1.0 2.0 0.00 0.00 0.00 78 1011.7
20260901140259 60 166 0.0 1.0 0.00 0.00 0.00 78 1011.7
20260901140251 59 159 0.0 4.0 0.00 0.00 0.00 79 1011.7
20260901130032 59 113 0.0 3.0 0.00 0.00 0.00 79 1011.5
20260901124534 59 94 2.0 3.0 0.00 0.00 0.00 80 1011.6
20260901123031 58 156 0.0 2.0 0.00 0.00 0.00 80 1011.6
20260901121530 58 214 0.0 4.0 0.00 0.00 0.00 80 1011.7
20260901120030 58 185 2.0 5.0 0.00 0.00 0.00 1011.5
20260901114532 58 154 2.0 5.0 0.00 0.00 0.00 81 1011.7
20260901113019 58 155 2.0 4.0 0.00 0.00 0.00 81 1011.6
20260901111527 58 167 2.0 7.0 0.00 0.00 0.00 80 1011.4
20260901110034 59 155 0.0 3.0 0.00 0.00 0.00 79 1011.3
20260901104534 59 151 0.0 8.0 0.00 0.00 0.00 78 1011.4
20260901103032 59 160 1.0 7.0 0.00 0.00 0.00 78 1011.3
20260901101529 60 192 3.0 9.0 0.00 0.00 0.00 77 1011.1
20260901100027 60 191 3.0 7.0 0.00 0.00 0.00 77 1011.1
20260901094532 60 140 3.0 6.0 0.00 0.00 0.00 76 1010.8
20260901093031 60 153 1.0 5.0 0.00 0.00 0.00 76 1010.9
20260901091524 61 135 3.0 6.0 0.00 0.00 0.00 76 1010.7
20260901090038 61 137 2.0 6.0 0.00 0.00 0.00 74 1010.4
20260901084530 62 146 1.0 8.0 0.00 0.00 0.00 74 1010.4
20260901083034 62 190 1.0 5.0 0.00 0.00 0.00 74 1010.5
20260901081533 62 206 1.0 6.0 0.00 0.00 0.00 73 1010.4
20260901080047 63 177 5.0 7.0 0.00 0.00 0.00 71 1010.3
20260901074528 63 132 3.0 8.0 0.00 0.00 0.00 69 1010.1